Location: Falniów
(50.3639°N, 19.9642°E)
Time: 14:21:50
(UTC+00:00)

CENTAUR R/B - Visible Passes

Search period start: 11 April 2026 00:00
Search period end: 21 April 2026 00:00
Orbit: 625 x 1555 km, 63.4° (Epoch: 11 April)

Date Brightness Start Highest point End Pass type
(mag) Time Alt. Az. Time Alt. Az. Time Alt. Az.
11 Apr 5.4 19:11:22 10° WNW 19:17:11 20° WSW 19:23:24 10° SSW visible
12 Apr 5.0 18:20:59 10° NW 18:28:09 31° WSW 18:35:57 10° SSW visible
13 Apr 5.8 19:25:56 10° W 19:27:59 11° W 19:30:05 10° WSW visible
14 Apr 5.6 18:33:35 10° WNW 18:39:10 19° WSW 18:45:05 10° SW visible
16 Apr 6.1 18:49:39 10° W 18:49:56 10° W 18:50:12 10° W visible
